EW3989 Weather Reports


Display with metric or nautical units.
time (UTC)temp
F
wind
direction
speed
MPH
gust
MPH
rain 1hr
in
rain 24hr
in
rain mn
in
humidity
%
barometer
mb
20200406030519 35 0.0 0.0 0.00 0.00 0.00 71 1018.6
20200406030020 35 0.0 0.0 0.00 0.00 0.00 70 1018.7
20200406025519 36 0.0 0.0 0.00 0.00 0.00 70 1018.6
20200406025019 36 0.0 0.0 0.00 0.00 0.00 70 1018.8
20200406024519 36 0.0 0.0 0.00 0.00 0.00 70 1018.7
20200406024019 36 0.0 0.0 0.00 0.00 0.00 70 1018.7
20200406023519 36 0.0 0.0 0.00 0.00 0.00 69 1018.8
20200406023019 37 0.0 0.0 0.00 0.00 0.00 68 1018.8
20200406022519 37 0.0 0.0 0.00 0.00 0.00 67 1018.8
20200406022019 37 0.0 0.0 0.00 0.00 0.00 66 1018.8
20200406021519 37 0.0 0.0 0.00 0.00 0.00 66 1018.8
20200406021019 37 0.0 0.0 0.00 0.00 0.00 66 1018.7
20200406020520 38 0.0 0.0 0.00 0.00 0.00 65 1018.8
20200406020020 38 0.0 0.0 0.00 0.00 0.00 65 1018.8
20200406015520 38 0.0 0.0 0.00 0.00 0.00 64 1018.8
20200406015020 39 0.0 0.0 0.00 0.00 0.00 64 1018.8
20200406014519 39 0.0 0.0 0.00 0.00 0.00 62 1018.8
20200406014019 39 0.0 0.0 0.00 0.00 0.00 60 1018.8
20200406013533 40 0.0 0.0 0.00 0.00 0.00 59 1018.8
20200406013019 40 0.0 0.0 0.00 0.00 0.00 59 1018.8
20200406012519 40 0.0 0.0 0.00 0.00 0.00 58 1018.8
20200406012019 41 0.0 0.0 0.00 0.00 0.00 58 1018.9
20200406011519 41 0.0 0.0 0.00 0.00 0.00 57 1018.9
20200406011154 42 0.0 0.0 0.00 0.00 0.00 54 1018.9
20200406010519 43 0.0 0.0 0.00 0.00 0.00 53 1018.9
20200406010019 43 0.0 0.0 0.00 0.00 0.00 51 1018.9
20200406005519 44 0.0 0.0 0.00 0.00 0.00 50 1018.8
20200406005020 45 0.0 0.0 0.00 0.00 0.00 49 1018.9
20200406004519 45 0.0 0.0 0.00 0.00 0.00 48 1018.8
20200406004019 46 0.0 0.0 0.00 0.00 0.00 48 1018.9
20200406003519 47 0.0 0.0 0.00 0.00 0.00 44 1019.0
20200406003019 48 0.0 0.0 0.00 0.00 0.00 42 1019.0
20200406002519 49 0.0 1.0 0.00 0.00 0.00 41 1019.0
20200406002019 49 0.0 1.0 0.00 0.00 0.00 42 1018.9
20200406001519 50 0.0 2.0 0.00 0.00 0.00 41 1018.8
20200406001019 51 0.0 2.0 0.00 0.00 0.00 40 1018.9
20200406000519 51 0.0 1.0 0.00 0.00 0.00 38 1018.9
20200406000019 51 0.0 2.0 0.00 0.00 0.00 38 1019.0
20200405235519 52 135 1.0 3.0 0.00 0.00 0.00 39 1019.0
20200405235019 52 0.0 1.0 0.00 0.00 0.00 37 1019.0
20200405234521 52 135 1.0 4.0 0.00 0.00 0.00 37 1019.0
20200405234019 52 0.0 2.0 0.00 0.00 0.00 36 1019.0
20200405233519 52 0.0 2.0 0.00 0.00 0.00 36 1019.0
20200405233019 53 90 1.0 4.0 0.00 0.00 0.00 36 1019.0
20200405232519 53 0.0 1.0 0.00 0.00 0.00 35 1019.0
20200405232019 53 135 1.0 5.0 0.00 0.00 0.00 35 1018.9
20200405231519 54 0.0 3.0 0.00 0.00 0.00 34 1019.0
20200405231019 54 158 1.0 2.0 0.00 0.00 0.00 32 1019.0
20200405230519 54 158 1.0 2.0 0.00 0.00 0.00 33 1019.1
20200405230019 54 135 1.0 5.0 0.00 0.00 0.00 33 1019.1
20200405225519 55 135 1.0 4.0 0.00 0.00 0.00 32 1019.1
20200405225019 55 135 1.0 3.0 0.00 0.00 0.00 32 1019.1
20200405224519 55 225 1.0 5.0 0.00 0.00 0.00 31 1019.1
20200405224019 55 248 1.0 4.0 0.00 0.00 0.00 30 1019.1
20200405223519 55 158 1.0 3.0 0.00 0.00 0.00 32 1019.1
20200405223019 55 135 1.0 5.0 0.00 0.00 0.00 32 1019.1
20200405222519 55 293 1.0 3.0 0.00 0.00 0.00 33 1019.1
20200405222019 55 248 2.0 6.0 0.00 0.00 0.00 34 1019.2
20200405221519 55 68 2.0 7.0 0.00 0.00 0.00 32 1019.1
20200405221019 55 135 2.0 6.0 0.00 0.00 0.00 32 1019.3
20200405220519 55 158 2.0 5.0 0.00 0.00 0.00 35 1019.3
20200405220019 56 135 2.0 4.0 0.00 0.00 0.00 34 1019.4
20200405215519 56 158 1.0 4.0 0.00 0.00 0.00 34 1019.4
20200405215019 55 158 2.0 4.0 0.00 0.00 0.00 34 1019.5
20200405214519 55 135 2.0 5.0 0.00 0.00 0.00 33 1019.5
20200405214020 55 135 2.0 6.0 0.00 0.00 0.00 33 1019.5
20200405213519 55 90 3.0 6.0 0.00 0.00 0.00 35 1019.5
20200405213019 55 135 2.0 6.0 0.00 0.00 0.00 34 1019.5
20200405212519 55 270 1.0 5.0 0.00 0.00 0.00 35 1019.5
20200405212019 55 113 2.0 6.0 0.00 0.00 0.00 36 1019.5
20200405211519 55 113 3.0 7.0 0.00 0.00 0.00 36 1019.6
20200405211019 54 293 3.0 7.0 0.00 0.00 0.00 36 1019.7
20200405210519 54 90 3.0 7.0 0.00 0.00 0.00 36 1019.7
20200405210019 55 158 2.0 4.0 0.00 0.00 0.00 38 1019.9
20200405205519 54 158 3.0 8.0 0.00 0.00 0.00 37 1019.9
20200405205021 55 135 2.0 6.0 0.00 0.00 0.00 37 1019.8
20200405204519 54 135 2.0 6.0 0.00 0.00 0.00 38 1019.9
20200405204019 54 135 2.0 4.0 0.00 0.00 0.00 40 1020.0
20200405203519 54 135 2.0 6.0 0.00 0.00 0.00 39 1020.1
20200405203018 54 68 3.0 8.0 0.00 0.00 0.00 39 1020.1
20200405202519 54 68 3.0 8.0 0.00 0.00 0.00 39 1020.2
20200405202019 53 90 3.0 8.0 0.00 0.00 0.00 40 1020.2
20200405201520 53 135 2.0 7.0 0.00 0.00 0.00 39 1020.3
20200405201019 53 135 3.0 8.0 0.00 0.00 0.00 39 1020.4
20200405200519 53 135 3.0 7.0 0.00 0.00 0.00 40 1020.5
20200405200024 53 135 2.0 4.0 0.00 0.00 0.00 39 1020.5
20200405195519 53 203 2.0 5.0 0.00 0.00 0.00 40 1020.6
20200405195019 53 135 2.0 6.0 0.00 0.00 0.00 42 1020.6
20200405194519 52 135 3.0 8.0 0.00 0.00 0.00 39 1020.6
20200405194019 52 135 2.0 5.0 0.00 0.00 0.00 39 1020.7
20200405193519 52 135 3.0 7.0 0.00 0.00 0.00 39 1020.8
20200405193019 52 135 2.0 8.0 0.00 0.00 0.00 41 1020.7
20200405192519 52 135 3.0 6.0 0.00 0.00 0.00 41 1020.8
20200405192020 52 225 2.0 5.0 0.00 0.00 0.00 45 1020.8
20200405191521 52 270 3.0 10.0 0.00 0.00 0.00 43 1020.9
20200405191019 52 225 2.0 5.0 0.00 0.00 0.00 45 1020.9
20200405190519 52 248 2.0 6.0 0.00 0.00 0.00 46 1020.9
20200405190019 51 225 2.0 6.0 0.00 0.00 0.00 45 1021.0
20200405185519 52 158 1.0 5.0 0.00 0.00 0.00 44 1021.1
20200405185019 51 158 1.0 5.0 0.00 0.00 0.00 47 1021.1
20200405184521 50 203 2.0 5.0 0.00 0.00 0.00 47 1021.2
20200405184020 50 315 2.0 8.0 0.00 0.00 0.00 48 1021.2
20200405183519 50 135 3.0 6.0 0.00 0.00 0.00 50 1021.2
20200405183019 50 158 2.0 7.0 0.00 0.00 0.00 52 1021.2
20200405182519 49 135 2.0 6.0 0.00 0.00 0.00 53 1021.2
20200405182019 49 135 3.0 8.0 0.00 0.00 0.00 53 1021.3
20200405181519 49 113 3.0 6.0 0.00 0.00 0.00 57 1021.3
20200405181021 49 135 2.0 6.0 0.00 0.00 0.00 55 1021.3
20200405180521 49 135 1.0 5.0 0.00 0.00 0.00 56 1021.3
20200405180021 48 225 2.0 5.0 0.00 0.00 0.00 57 1021.4
20200405175520 48 135 2.0 6.0 0.00 0.00 0.00 57 1021.5
20200405175019 48 135 2.0 8.0 0.00 0.00 0.00 59 1021.6
20200405174521 48 68 1.0 4.0 0.00 0.00 0.00 61 1021.6
20200405174019 47 135 2.0 6.0 0.00 0.00 0.00 63 1021.6
20200405173519 46 135 2.0 5.0 0.00 0.00 0.00 63 1021.6
20200405173019 46 158 2.0 6.0 0.00 0.00 0.00 65 1021.7
20200405172519 45 225 2.0 5.0 0.00 0.00 0.00 65 1021.7
20200405172020 45 225 2.0 5.0 0.00 0.00 0.00 69 1021.8
20200405171521 44 68 3.0 6.0 0.00 0.00 0.00 71 1021.7
20200405171021 44 68 2.0 5.0 0.00 0.00 0.00 71 1021.9
20200405170520 43 68 2.0 8.0 0.00 0.00 0.00 74 1021.9
20200405170019 42 68 5.0 10.0 0.00 0.00 0.00 74 1021.9
20200405165519 42 135 3.0 7.0 0.00 0.00 0.00 74 1021.9
20200405165019 42 135 1.0 3.0 0.00 0.00 0.00 76 1022.0
20200405164519 41 135 2.0 6.0 0.00 0.00 0.00 76 1022.1
20200405164032 41 68 2.0 6.0 0.00 0.00 0.00 79 1022.1
20200405163520 40 135 1.0 4.0 0.00 0.00 0.00 81 1022.2
20200405163020 39 135 2.0 7.0 0.00 0.00 0.00 83 1022.3
20200405162520 38 68 2.0 6.0 0.00 0.00 0.00 84 1022.3
20200405162019 38 90 1.0 5.0 0.00 0.00 0.00 85 1022.3
20200405161519 37 135 2.0 5.0 0.00 0.00 0.00 86 1022.5
20200405161021 37 68 2.0 6.0 0.00 0.00 0.00 88 1022.5
20200405160521 36 90 1.0 2.0 0.00 0.00 0.00 89 1022.5
20200405160021 35 158 1.0 5.0 0.00 0.00 0.00 90 1022.5
20200405155520 35 90 1.0 3.0 0.00 0.00 0.00 91 1022.5
20200405155020 35 90 1.0 3.0 0.00 0.00 0.00 93 1022.4
20200405154519 34 158 1.0 3.0 0.00 0.00 0.00 92 1022.5
20200405154020 34 90 1.0 4.0 0.00 0.00 0.00 93 1022.5
20200405153521 34 135 1.0 4.0 0.00 0.00 0.00 93 1022.3
20200405153021 33 90 2.0 6.0 0.00 0.00 0.00 94 1022.3
20200405152518 33 135 1.0 3.0 0.00 0.00 0.00 95 1022.4
20200405152021 33 90 2.0 4.0 0.00 0.00 0.00 95 1022.4
20200405151520 33 158 1.0 2.0 0.00 0.00 0.00 95 1022.3
20200405151020 33 158 1.0 2.0 0.00 0.00 0.00 96 1022.3
20200405150520 33 0.0 3.0 0.00 0.00 0.00 96 1022.3
20200405150020 32 135 1.0 3.0 0.00 0.00 0.00 96 1022.4
20200405145519 32 135 1.0 3.0 0.00 0.00 0.00 96 1022.6
20200405145019 32 158 1.0 6.0 0.00 0.00 0.00 97 1022.6
20200405144521 32 90 2.0 5.0 0.00 0.00 0.00 97 1022.5
20200405144021 32 90 2.0 5.0 0.00 0.00 0.00 97 1022.5
20200405143519 32 68 1.0 4.0 0.00 0.00 0.00 97 1022.5
20200405143020 32 90 2.0 5.0 0.00 0.00 0.00 97 1022.5
20200405142520 32 158 1.0 3.0 0.00 0.00 0.00 97 1022.5
20200405142020 32 90 1.0 3.0 0.00 0.00 0.00 97 1022.4
20200405141520 32 68 2.0 5.0 0.00 0.00 0.00 97 1022.5
20200405141020 32 68 2.0 6.0 0.00 0.00 0.00 97 1022.5
20200405140520 32 90 2.0 5.0 0.00 0.00 0.00 97 1022.4
20200405140020 31 68 1.0 2.0 0.00 0.00 0.00 97 1022.5
20200405135521 31 68 1.0 3.0 0.00 0.00 0.00 97 1022.4
20200405135020 31 90 1.0 3.0 0.00 0.00 0.00 97 1022.4
20200405134520 31 68 1.0 4.0 0.00 0.00 0.00 97 1022.4
20200405134020 31 90 1.0 4.0 0.00 0.00 0.00 97 1022.4
20200405133521 31 68 1.0 5.0 0.00 0.00 0.00 97 1022.3
20200405133020 31 68 1.0 3.0 0.00 0.00 0.00 97 1022.2
20200405132520 31 68 2.0 8.0 0.00 0.00 0.00 97 1022.2
20200405132020 30 90 3.0 6.0 0.00 0.00 0.00 97 1022.2
20200405131521 30 90 2.0 6.0 0.00 0.00 0.00 97 1022.1
20200405131022 30 90 1.0 3.0 0.00 0.00 0.00 97 1022.2
20200405130527 30 90 1.0 3.0 0.00 0.00 0.00 97 1022.3
20200405130021 30 90 1.0 3.0 0.00 0.00 0.00 97 1022.3
20200405125520 30 0.0 3.0 0.00 0.00 0.00 97 1022.3
20200405125020 30 68 1.0 3.0 0.00 0.00 0.00 97 1022.2
20200405124520 30 90 2.0 6.0 0.00 0.00 0.00 97 1022.2
20200405124020 29 68 1.0 4.0 0.00 0.00 0.00 97 1022.2
20200405123521 29 68 2.0 6.0 0.00 0.00 0.00 97 1022.2
20200405123020 29 90 2.0 5.0 0.00 0.00 0.00 97 1022.2
20200405122520 29 68 1.0 3.0 0.00 0.00 0.00 97 1022.1
20200405122020 28 90 1.0 3.0 0.00 0.00 0.00 97 1022.1
20200405121520 28 68 1.0 4.0 0.00 0.00 0.00 97 1022.1
20200405121020 28 0.0 3.0 0.00 0.00 0.00 97 1021.9
20200405120520 27 90 1.0 4.0 0.00 0.00 0.00 96 1021.9
20200405120020 27 68 1.0 2.0 0.00 0.00 0.00 96 1021.8
20200405115520 26 90 1.0 3.0 0.00 0.00 0.00 96 1021.8
20200405115021 26 68 1.0 4.0 0.00 0.00 0.00 95 1021.8
20200405114521 25 68 1.0 3.0 0.00 0.00 0.00 95 1021.7
20200405114020 25 90 1.0 3.0 0.00 0.00 0.00 93 1021.6
20200405113520 25 0.0 1.0 0.00 0.00 0.00 92 1021.5
20200405113020 24 0.0 1.0 0.00 0.00 0.00 93 1021.4
20200405112520 24 0.0 1.0 0.00 0.00 0.00 94 1021.4
20200405112020 24 0.0 1.0 0.00 0.00 0.00 95 1021.5
20200405111520 23 0.0 1.0 0.00 0.00 0.00 96 1021.3
20200405111026 23 0.0 1.0 0.00 0.00 0.00 96 1021.4
20200405110520 23 0.0 0.0 0.00 0.00 0.00 96 1021.3
20200405110020 22 0.0 0.0 0.00 0.00 0.00 96 1021.3
20200405105520 22 0.0 0.0 0.00 0.00 0.00 95 1021.2
20200405105020 22 0.0 1.0 0.00 0.00 0.00 95 1021.3
20200405104520 22 0.0 1.0 0.00 0.00 0.00 95 1021.2
20200405104020 21 0.0 0.0 0.00 0.00 0.00 95 1021.3
20200405103520 21 0.0 0.0 0.00 0.00 0.00 95 1021.2
20200405103020 21 0.0 0.0 0.00 0.00 0.00 95 1021.3
20200405102520 21 0.0 0.0 0.00 0.00 0.00 95 1021.3
20200405102020 21 0.0 0.0 0.00 0.00 0.00 95 1021.3
20200405101520 21 0.0 0.0 0.00 0.00 0.00 95 1021.2
20200405101020 21 0.0 0.0 0.00 0.00 0.00 95 1021.1
20200405100520 21 0.0 0.0 0.00 0.00 0.00 95 1021.1
20200405100020 22 0.0 0.0 0.00 0.00 0.00 95 1021.0
20200405095520 21 0.0 0.0 0.00 0.00 0.00 95 1021.0
20200405095020 21 0.0 0.0 0.00 0.00 0.00 95 1021.1
20200405094520 21 0.0 0.0 0.00 0.00 0.00 95 1021.0
20200405094020 22 0.0 0.0 0.00 0.00 0.00 95 1020.9
20200405093520 22 0.0 0.0 0.00 0.00 0.00 95 1020.9
20200405093020 22 0.0 0.0 0.00 0.00 0.00 95 1020.8
20200405092520 22 0.0 0.0 0.00 0.00 0.00 95 1020.7
20200405092020 22 0.0 0.0 0.00 0.00 0.00 95 1020.8
20200405091520 22 0.0 0.0 0.00 0.00 0.00 95 1020.8
20200405091020 22 0.0 0.0 0.00 0.00 0.00 95 1020.7
20200405090520 22 0.0 0.0 0.00 0.00 0.00 95 1020.7
20200405090020 22 0.0 0.0 0.00 0.00 0.00 95 1020.7
20200405085520 23 0.0 0.0 0.00 0.00 0.00 95 1020.7
20200405085020 23 0.0 0.0 0.00 0.00 0.00 95 1020.6
20200405084520 23 0.0 0.0 0.00 0.00 0.00 95 1020.5
20200405084020 23 0.0 0.0 0.00 0.00 0.00 96 1020.5
20200405083520 23 0.0 0.0 0.00 0.00 0.00 96 1020.5
20200405083020 23 0.0 0.0 0.00 0.00 0.00 96 1020.5
20200405082520 23 0.0 0.0 0.00 0.00 0.00 96 1020.5
20200405082020 23 0.0 0.0 0.00 0.00 0.00 96 1020.4
20200405081521 23 0.0 0.0 0.00 0.00 0.00 96 1020.4
20200405081020 23 0.0 0.0 0.00 0.00 0.00 96 1020.4
20200405080520 23 0.0 0.0 0.00 0.00 0.00 95 1020.4
20200405080020 23 0.0 0.0 0.00 0.00 0.00 95 1020.2
20200405075520 23 0.0 0.0 0.00 0.00 0.00 95 1020.2
20200405075020 24 0.0 0.0 0.00 0.00 0.00 96 1020.4
20200405074520 24 0.0 0.0 0.00 0.00 0.00 96 1020.4
20200405074020 24 0.0 0.0 0.00 0.00 0.00 96 1020.5
20200405073520 24 0.0 0.0 0.00 0.00 0.00 96 1020.5
20200405073020 24 0.0 0.0 0.00 0.00 0.00 96 1020.3
20200405072520 24 0.0 0.0 0.00 0.00 0.00 96 1020.3
20200405072020 24 0.0 0.0 0.00 0.00 0.00 96 1020.3
20200405071520 24 0.0 0.0 0.00 0.00 0.00 96 1020.3
20200405071020 24 0.0 0.0 0.00 0.00 0.00 96 1020.2
20200405070520 24 0.0 0.0 0.00 0.00 0.00 96 1020.1
20200405070020 24 0.0 0.0 0.00 0.00 0.00 96 1020.1
20200405065520 24 0.0 0.0 0.00 0.00 0.00 95 1020.2
20200405065020 24 0.0 0.0 0.00 0.00 0.00 95 1020.1
20200405064520 24 0.0 0.0 0.00 0.00 0.00 95 1020.1
20200405064020 24 0.0 0.0 0.00 0.00 0.00 95 1020.2
20200405063519 24 0.0 0.0 0.00 0.00 0.00 95 1020.2
20200405063020 24 0.0 0.0 0.00 0.00 0.00 95 1020.2
20200405062520 24 0.0 0.0 0.00 0.00 0.00 95 1020.3
20200405062020 24 0.0 0.0 0.00 0.00 0.00 95 1020.2
20200405061521 24 0.0 0.0 0.00 0.00 0.00 95 1020.3
20200405061020 24 0.0 0.0 0.00 0.00 0.00 95 1020.3
20200405060519 24 0.0 0.0 0.00 0.00 0.00 95 1020.3
20200405060020 24 0.0 0.0 0.00 0.00 0.00 95 1020.3
20200405055520 24 0.0 0.0 0.00 0.00 0.00 95 1020.0
20200405055020 24 0.0 0.0 0.00 0.00 0.00 95 1020.0
20200405054520 24 0.0 0.0 0.00 0.00 0.00 95 1020.0
20200405054019 24 0.0 0.0 0.00 0.00 0.00 95 1020.0
20200405053520 24 0.0 0.0 0.00 0.00 0.00 95 1020.0
20200405053020 24 0.0 0.0 0.00 0.00 0.00 95 1019.9
20200405052520 25 0.0 0.0 0.00 0.00 0.00 94 1019.9
20200405052020 25 0.0 0.0 0.00 0.00 0.00 94 1019.9
20200405051520 25 0.0 0.0 0.00 0.00 0.00 94 1019.9
20200405051020 25 0.0 0.0 0.00 0.00 0.00 94 1019.9
20200405050519 25 0.0 0.0 0.00 0.00 0.00 94 1019.9
20200405050020 25 0.0 0.0 0.00 0.00 0.00 94 1019.9
20200405045519 25 0.0 0.0 0.00 0.00 0.00 94 1019.8
20200405045019 25 0.0 0.0 0.00 0.00 0.00 94 1019.8
20200405044519 25 0.0 0.0 0.00 0.00 0.00 94 1019.7
20200405044020 25 0.0 0.0 0.00 0.00 0.00 93 1019.7
20200405043520 25 0.0 0.0 0.00 0.00 0.00 93 1019.7
20200405043020 25 0.0 0.0 0.00 0.00 0.00 93 1019.8
20200405042520 25 0.0 0.0 0.00 0.00 0.00 93 1019.8
20200405042019 25 0.0 0.0 0.00 0.00 0.00 93 1019.7
20200405041519 25 0.0 0.0 0.00 0.00 0.00 92 1019.8
20200405041019 26 0.0 0.0 0.00 0.01 0.00 92 1019.7
20200405040519 26 0.0 0.0 0.00 0.01 0.00 92 1019.6
20200405040020 26 0.0 0.0 0.00 0.01 0.00 92 1019.7
20200405035520 26 0.0 0.0 0.00 0.01 0.00 92 1019.7
20200405035033 26 0.0 0.0 0.00 0.02 0.00 92 1019.7
20200405034519 26 0.0 0.0 0.00 0.02 0.00 92 1019.7
20200405034019 26 0.0 0.0 0.00 0.02 0.00 92 1019.6
20200405033519 26 0.0 0.0 0.00 0.02 0.00 92 1019.6
20200405033020 26 0.0 0.0 0.00 0.03 0.00 91 1019.6
20200405032524 26 0.0 0.0 0.00 0.06 0.00 91 1019.5
20200405032020 27 0.0 0.0 0.00 0.07 0.00 91 1019.4
20200405031519 27 0.0 0.0 0.00 0.08 0.00 90 1019.5
20200405031019 27 0.0 0.0 0.00 0.09 0.00 90 1019.3